Weather Roundup
Issued by NWS

Home | Current Version | Previous Version | Graphics & Text | Print | Product List | Glossary Off
Versions: 1 2 3 4 5 6 7 8 9 10 11 12 13 14 15 16 17 18 19 20 21 22 23 24 25 26 27 28 29 30 31 32 33 34 35 36 37 38 39 40 41 42 43 44 45 46 47 48 49 50

095
NZUS93 KARX 262210
HRRWXR

CURRENT HOURLY OBSERVATIONS ACROSS
MUCH OF THE UPPER MISSISSIPPI VALLEY
NATIONAL WEATHER SERVICE LA CROSSE WI
500 PM CDT FRI AUG 26 2016


...SOUTHEAST MINNESOTA...


CITY           SKY/WX    TMP DP  RH WIND       PRES   REMARKS
ROCHESTER      CLOUDY    70  56  61 E3        30.16F
ROCHESTER/MAYO FAIR      70  54  56 CALM      30.16F
WINONA         CLOUDY    72  54  53 CALM      30.15S
AUSTIN         CLOUDY    68  55  64 CALM      30.16S
ALBERT LEA     CLOUDY    70  55  60 CALM      30.16S
DODGE CENTER   CLOUDY    72  55  56 SE3       30.16F
PRESTON        CLOUDY    68  55  64 CALM      30.16F
OWATONNA       CLOUDY    70  54  56 S3        30.16S
FARIBAULT      CLOUDY    72  55  56 CALM      30.16F
$$

...ELSEWHERE IN MINNESOTA...


CITY           SKY/WX    TMP DP  RH WIND       PRES   REMARKS
MINNEAPOLIS    CLOUDY    71  52  50 S5        30.15S
INTNL FALLS    PTSUNNY   71  53  52 W3        30.05F
DULUTH         CLOUDY    72  52  49 S8        30.12S
RED WING       CLOUDY    72  50  46 CALM      30.15S
REDWOOD FALLS  MOSUNNY   71  54  54 SE7       30.14F
MANKATO        CLOUDY    70  54  56 SE5       30.15F
WORTHINGTON    PTSUNNY   68  56  65 SE7       30.15F
FAIRMONT       CLOUDY    69  58  67 SE5       30.16S
$$

...SOUTHWEST WISCONSIN...


CITY           SKY/WX    TMP DP  RH WIND       PRES   REMARKS
LA CROSSE      CLOUDY    73  58  59 W5        30.14S
PRAIRIE DU CHI CLOUDY    67  58  70 NE3       30.14S
BOSCOBEL       LGT RAIN  71  61  70 CALM      30.15F
LONE ROCK      CLOUDY    71  59  65 N5        30.15R
PLATTEVILLE    CLOUDY    71  62  74 NE5       30.14F
FORT MC COY    CLOUDY    71  58  63 CALM      30.15F
CAMP DOUGLAS   PTSUNNY   72  57  60 CALM      30.14F
MAUSTON-NEW LI CLOUDY    71  58  64 CALM      30.14F
VIROQUA        FAIR      69  57  65 CALM      30.17S
WIS DELLS      CLOUDY    69  57  66 CALM      30.15S
$$

...ELSEWHERE IN WISCONSIN...


CITY           SKY/WX    TMP DP  RH WIND       PRES   REMARKS
MILWAUKEE      PTSUNNY   72  57  59 E9        30.13S
MADISON        PTSUNNY   73  58  59 NE5       30.13S
GREEN BAY      MOSUNNY   72  58  61 SW5       30.14S
EAU CLAIRE     PTSUNNY   72  52  49 W3        30.15S
BLACK RVR FLS  FAIR      72  51  47 CALM      30.15S
MEDFORD        MOSUNNY   68  51  55 W3        30.17S
WAUSAU         CLOUDY    70  51  51 W7        30.14S
WIS RAPIDS     CLOUDY    70  54  56 NW3       30.17F
MARSHFIELD     PTSUNNY   70  52  52 NW5       30.16S
RICE LAKE      PTSUNNY   70  50  50 CALM      30.17S
$$

...NORTHEAST IOWA...


CITY           SKY/WX    TMP DP  RH WIND       PRES   REMARKS
WATERLOO       CLOUDY    67  61  81 NE3       30.12F
DUBUQUE        CLOUDY    72  60  66 N7        30.15R
DECORAH        CLOUDY    68  57  68 CALM      30.15S
MASON CITY     CLOUDY    69  59  70 CALM      30.17R
CHARLES CITY   CLOUDY    70  61  73 CALM      30.15F
OELWEIN        PTSUNNY   66  61  82 NE8       30.14F
$$

...ELSEWHERE IN IOWA...


CITY           SKY/WX    TMP DP  RH WIND       PRES   REMARKS
DES MOINES     CLOUDY    72  65  78 NE9       30.08F
IOWA CITY      CLOUDY    77  63  61 NE7       30.11S
FORT DODGE     CLOUDY    66  63  88 CALM      30.15R
MARSHALLTOWN   LGT RAIN  67  64  90 NE6       30.12S
CEDAR RAPIDS   CLOUDY    74  65  73 NE7       30.10F
$$

...NORTHERN ILLINOIS...


CITY           SKY/WX    TMP DP  RH WIND       PRES   REMARKS
CHICAGO-OHARE  PTSUNNY   78  59  51 E9        30.12R
CHICAGO-MIDWAY CLOUDY    77  61  57 E10       30.12R
MOLINE         MOSUNNY   78  63  59 E8        30.08F
ROCKFORD       CLOUDY    77  59  53 E5        30.13S
PEORIA         CLOUDY    79  71  76 E7        30.08S
$$

NOTE: "FAIR" INDICATES FEW OR NO CLOUDS BELOW 12,000 FEET WITH NO
SIGNIFICANT WEATHER AND/OR OBSTRUCTIONS TO VISIBILITY. WIND
SPEEDS ARE IN MILES-PER-HOUR.




USA.gov is the U.S. government's official web portal to all federal, state and local government web resources and services.